Liberty Clipper — WDE9221 — position and weather

sailwx.info

Track history (hours):
 
Tides and Currents Weather Stations Pressure Air Temp Water Temp Dewpoint Dewpoint Depression Visibility Wind Speed Wind Dir Waves Ship Positions

Liberty Clipper

Owner: Schooner Liberty Clipper, Inc., Wellesley, MA. More information available from US FCC via Universal Licensing System and Coast Guard Vessel Documentation Center.

Last reported at 2013-Oct-26 08:20 UTC. Time now 2014-Dec-19 08:02 UTC.
Position N 25°46' W 080°05'.
Warning: this ship's position is years out of date!

Date/timePositionNaut miles runAvg speedWind from/ knotsBaromVisibWave heightAir tempDewpointWater temp
2013-Oct-26 08:20N 25°46' W 080°05'18 6.3
2013-Oct-26 05:30N 26°04' W 080°04'5 5.1
2013-Oct-26 04:32N 26°09' W 080°02'5 4.9
2013-Oct-26 03:32N 26°14' W 080°02'  
2013-Oct-17 12:33N 39°17' W 076°35'0 0.0
2013-Oct-17 11:29N 39°17' W 076°35'0 0.0
2013-Oct-17 10:29N 39°17' W 076°35'0 0.0
2013-Oct-17 09:23N 39°17' W 076°35'0 0.0
2013-Oct-17 08:29N 39°17' W 076°35'0 0.0
2013-Oct-17 07:33N 39°17' W 076°35'0 0.0
2013-Oct-17 06:33N 39°17' W 076°35'0 0.0
2013-Oct-17 05:23N 39°17' W 076°35'0 0.0
2013-Oct-17 04:23N 39°17' W 076°35'0 0.0
2013-Oct-17 03:32N 39°17' W 076°35'0 0.0
2013-Oct-17 02:29N 39°17' W 076°35'0 0.0
2013-Oct-17 01:32N 39°17' W 076°35'0 0.0
2013-Oct-17 00:26N 39°17' W 076°35'0 0.0
2013-Oct-16 23:11N 39°17' W 076°35'0 0.2
2013-Oct-16 22:33N 39°16' W 076°35'0 0.2
2013-Oct-16 21:28N 39°16' W 076°35'0 0.2
2013-Oct-16 20:23N 39°17' W 076°35'0 0.0
2013-Oct-16 19:32N 39°17' W 076°35'0 0.0
2013-Oct-16 18:32N 39°17' W 076°35'0 0.0
2013-Oct-16 17:32N 39°17' W 076°35'0 0.0
2013-Oct-16 16:32N 39°17' W 076°35'0 0.0
2013-Oct-16 15:26N 39°17' W 076°35'0 0.0
2013-Oct-16 14:32N 39°17' W 076°35'0 0.0
2013-Oct-16 13:32N 39°17' W 076°35'0 0.0
2013-Oct-16 12:32N 39°17' W 076°35'0 0.0
2013-Oct-16 11:32N 39°17' W 076°35'0 0.0
2013-Oct-16 10:29N 39°17' W 076°35'0 0.0
2013-Oct-16 09:32N 39°17' W 076°35'0 0.0
2013-Oct-16 08:32N 39°17' W 076°35'  
Track history (hours):
 
Tides and Currents Weather Stations Pressure Air Temp Water Temp Dewpoint Dewpoint Depression Visibility Wind Speed Wind Dir Waves Ship Positions

Liberty Clipper

Owner: Schooner Liberty Clipper, Inc., Wellesley, MA. More information available from US FCC via Universal Licensing System and Coast Guard Vessel Documentation Center.

Last reported at 2013-Oct-26 08:20 UTC. Time now 2014-Dec-19 08:02 UTC.
Position N 25°46' W 080°05'.
Warning: this ship's position is years out of date!

Date/timePositionNaut miles runAvg speedWind from/ knotsBaromVisibWave heightAir tempDewpointWater temp
2013-Oct-26 08:20N 25°46' W 080°05'18 6.3
2013-Oct-26 05:30N 26°04' W 080°04'5 5.1
2013-Oct-26 04:32N 26°09' W 080°02'5 4.9
2013-Oct-26 03:32N 26°14' W 080°02'  
2013-Oct-17 12:33N 39°17' W 076°35'0 0.0
2013-Oct-17 11:29N 39°17' W 076°35'0 0.0
2013-Oct-17 10:29N 39°17' W 076°35'0 0.0
2013-Oct-17 09:23N 39°17' W 076°35'0 0.0
2013-Oct-17 08:29N 39°17' W 076°35'0 0.0
2013-Oct-17 07:33N 39°17' W 076°35'0 0.0
2013-Oct-17 06:33N 39°17' W 076°35'0 0.0
2013-Oct-17 05:23N 39°17' W 076°35'0 0.0
2013-Oct-17 04:23N 39°17' W 076°35'0 0.0
2013-Oct-17 03:32N 39°17' W 076°35'0 0.0
2013-Oct-17 02:29N 39°17' W 076°35'0 0.0
2013-Oct-17 01:32N 39°17' W 076°35'0 0.0
2013-Oct-17 00:26N 39°17' W 076°35'0 0.0
2013-Oct-16 23:11N 39°17' W 076°35'0 0.2
2013-Oct-16 22:33N 39°16' W 076°35'0 0.2
2013-Oct-16 21:28N 39°16' W 076°35'0 0.2
2013-Oct-16 20:23N 39°17' W 076°35'0 0.0
2013-Oct-16 19:32N 39°17' W 076°35'0 0.0
2013-Oct-16 18:32N 39°17' W 076°35'0 0.0
2013-Oct-16 17:32N 39°17' W 076°35'0 0.0
2013-Oct-16 16:32N 39°17' W 076°35'0 0.0
2013-Oct-16 15:26N 39°17' W 076°35'0 0.0
2013-Oct-16 14:32N 39°17' W 076°35'0 0.0
2013-Oct-16 13:32N 39°17' W 076°35'0 0.0
2013-Oct-16 12:32N 39°17' W 076°35'0 0.0
2013-Oct-16 11:32N 39°17' W 076°35'0 0.0
2013-Oct-16 10:29N 39°17' W 076°35'0 0.0
2013-Oct-16 09:32N 39°17' W 076°35'0 0.0
2013-Oct-16 08:32N 39°17' W 076°35'  

Dump ship's entire track history